OpenBCM V1.08-5-g2f4a (Linux)

Packet Radio Mailbox

IZ3LSV

[San Dona' di P. JN]

 Login: GUEST





  
I0OJJ  > KEPS     30.03.25 03:25l 328 Lines 15596 Bytes #136 (0) @ AMSAT
BID : ORB25089.1
Read: GUEST
Subj: 2Line Orbital Elements 25089.AMSAT
Path: IZ3LSV<I0OJJ
Sent: 250330/0025z @:I0OJJ.ITA.EU [Rome] obcm1.08-6-g5b69
From: I0OJJ @ I0OJJ.ITA.EU (Gustavo)
To:   KEPS @ AMSAT
X-Info: This message was generated automatically


QST de W1STR

AMSAT Orbital Elements for Amateur Satellites in TLE Format
From Orbital Analysis Office
New England Sci-Tech STEM Education Center
Natick, MA March 30, 2025
To all radio amateurs


These element sets describe the orbits of various satellites 
in use by the amateur radio community. For details see:
www.amsat.org/keplerian-elements-formats/

A daily update of element sets is available at:
www.amsat.org/tle/daily-bulletin.txt
or without bulletin text:
www.amsat.org/tle/dailytle.txt


AO-07
1 07530U 74089B   25088.02010465 -.00000028  00000-0  11375-3 0  9995
2 07530 101.9956  91.5074 0011879 260.3630 119.4270 12.53687830304734
UO-11
1 14781U 84021B   25088.37248540  .00003654  00000-0  39366-3 0  9990
2 14781  97.7469  56.2172 0006967 203.9452 156.1442 14.89041077190892
AO-27
1 22825U 93061C   25088.74775511  .00000321  00000-0  13990-3 0  9999
2 22825  98.7447 149.9206 0007702 330.0776  29.9965 14.30763285643713
FO-29
1 24278U 96046B   25088.29555186 -.00000002  00000-0  32438-4 0  9999
2 24278  98.5832 351.6810 0350134 169.6894 191.1675 13.53241837412995
NOAA-15
1 25338U 98030A   25088.86916015  .00000398  00000-0  18150-3 0  9998
2 25338  98.5432 115.7028 0009868 203.0740 156.9998 14.26926979398175
GO-32
1 25397U 98043D   25088.89718206  .00000266  00000-0  13516-3 0  9997
2 25397  98.9649  66.5439 0002280  70.2686 289.8738 14.24285113388305
ISS
1 25544U 98067A   25088.87942284  .00018450  00000-0  32716-3 0  9997
2 25544  51.6366 339.8217 0003558  62.8525 297.2826 15.50286274502868
NO-44
1 26931U 01043C   25088.34347985  .00000498  00000-0  21753-3 0  9997
2 26931  67.0511 314.6037 0005565 268.3742  91.6722 14.31677269226766
SO-50
1 27607U 02058C   25088.32472192  .00004459  00000-0  57706-3 0  9990
2 27607  64.5541  63.5216 0047908 351.4866   8.5420 14.81278367198524
CO-55
1 27844U 03031E   25088.02429768  .00000995  00000-0  45295-3 0  9994
2 27844  98.6792  97.2282 0010439  44.0436 316.1572 14.23907433128312
CO-57
1 27848U 03031J   25088.00937530  .00000836  00000-0  38856-3 0  9996
2 27848  98.6820  97.2734 0010569  59.4320 300.7900 14.23254705128047
RS-22
1 27939U 03042A   25088.91229296  .00002939  00000-0  47567-3 0  9997
2 27939  98.3208 256.6674 0010724 233.3926 253.8837 14.72055709150282
NOAA-18
1 28654U 05018A   25088.84970411  .00000413  00000-0  24258-3 0  9998
2 28654  98.8444 169.1287 0013517 336.8778  23.1785 14.13559919 23612
CO-58
1 28895U 05043F   25088.88428038  .00004218  00000-0  70094-3 0  9996
2 28895  98.2376 232.4014 0015122 170.8407 189.3077 14.70597492 36634
CO-65
1 32785U 08021C   25088.28427135  .00010772  00000-0  79761-3 0  9991
2 32785  97.7772  58.9959 0012240  94.9012 265.3611 15.03264742918214
AAUSAT2
1 32788U 08021F   25087.91879508  .00211411  00000-0  24006-2 0  9992
2 32788  97.6045  82.1872 0005830 133.6208 226.5533 15.61626080922057
CO-66
1 32791U 08021J   25087.91251461  .00024930  00000-0  12933-2 0  9992
2 32791  97.7230  66.4777 0006843  73.2606 286.9377 15.16114013919558
RS-30
1 32953U 08025A   25088.85595834  .00000026  00000-0  11315-3 0  9999
2 32953  82.4974 271.7930 0019244 199.8942 160.1390 12.43161065764623
NOAA-19
1 33591U 09005A   25088.84442536  .00000393  00000-0  23365-3 0  9991
2 33591  99.0043 153.1275 0013530 202.4214 157.6368 14.13325891831970
SRMSAT
1 37841U 11058D   25088.40705935  .00000658  00000-0  21386-3 0  9996
2 37841  19.9708 231.2905 0011805 351.6385  32.6251 14.11398597694902
ZACUBE-1
1 39417U 13066B   25088.36004732  .00012018  00000-0  10658-2 0  9992
2 39417  97.7730  45.8357 0042789 294.6467  65.0300 14.95643514614118
Delfi-N3xt
1 39428U 13066N   25088.32741332  .00013281  00000-0  13931-2 0  9994
2 39428  97.8374   6.8566 0085052 237.7110 121.5847 14.86976895608339
GOMX-1
1 39430U 13066Q   25088.89137181  .00003718  00000-0  58347-3 0  9995
2 39430  97.6935 311.9331 0134716  62.1509 299.3271 14.67228040604890
LO-74
1 39440U 13066AA  25088.80110050  .00010633  00000-0  10918-2 0  9998
2 39440  97.8446  33.9258 0065161  57.8672 302.8845 14.88979878611955
AO-73
1 39444U 13066AE  25088.84951543  .00013715  00000-0  10659-2 0  9992
2 39444  97.7654  50.6207 0039261 268.9104  90.7621 15.00807812613417
DTUSAT-2
1 40030U 14033W   25088.41263299  .00014531  00000-0  97906-3 0  9995
2 40030  98.0484  56.8424 0007683 314.6512  45.4087 15.06770300585529
EO-80
1 40032U 14033Y   25088.90130874  .00012486  00000-0  84002-3 0  9993
2 40032  98.0388  57.1072 0006566 233.5986 126.4635 15.06870948586091
LILACSAT-2
1 40908U 15049K   25088.84382312  .00017880  00000-0  50003-3 0  9999
2 40908  97.5124 107.5392 0011468  65.2880 294.9556 15.36667359527204
IO-86
1 40931U 15052B   25038.81889873  .00001817  00000-0  15548-3 0  9993
2 40931   6.0001 108.1159 0012838 187.7041 172.2889 14.78568669506492
Horyu-4
1 41340U 16012D   25088.17274128  .00038463  00000-0  11748-2 0  9994
2 41340  30.9970 257.5080 0008749  29.5055 330.6082 15.32646345501651
Lapan A3
1 41603U 16040E   25088.86446639  .00005526  00000-0  19762-3 0  9990
2 41603  97.1392  96.3111 0011941 156.0744 204.1054 15.29128368486820
CAS-2T
1 41847U 16066G   25088.24067102  .00002758  00000-0  39928-3 0  9994
2 41847  98.4246 163.3261 0347672  37.4999 324.9905 14.43249264440583
CAS-4B
1 42759U 17034B   25088.88618237  .00062283  00000-0  95454-3 0  9999
2 42759  43.0110  26.1687 0016974 155.3591 204.8085 15.53310997431417
CAS-4A
1 42761U 17034D   25088.83575695  .00063155  00000-0  94323-3 0  9990
2 42761  43.0146  24.2114 0018458 159.8666 200.2928 15.53983347431426
TechnoSat
1 42829U 17042E   25088.73453454  .00007194  00000-0  56647-3 0  9999
2 42829  97.3908 260.8878 0013670 158.8598 201.3194 15.01013836419948
AO-91
1 43017U 17073E   25088.14270454  .00016492  00000-0  86413-3 0  9990
2 43017  97.5353 320.7768 0178718  53.3905 308.3610 15.03027644398327
S-Net D
1 43186U 18014G   25088.26753319  .00010581  00000-0  64041-3 0  9998
2 43186  97.5702 351.9381 0011123 109.0811 251.1624 15.10751822391457
S-Net B
1 43187U 18014H   25088.27203886  .00010993  00000-0  66538-3 0  9999
2 43187  97.5704 351.9109 0011883 106.0939 254.1600 15.10733581391458
S-Net A
1 43188U 18014J   25088.26816588  .00010566  00000-0  63930-3 0  9997
2 43188  97.5713 352.0479 0011842 106.1714 254.0819 15.10756317391451
S-Net C
1 43189U 18014K   25088.80416517  .00009267  00000-0  56134-3 0  9990
2 43189  97.5725 352.5801 0013347  98.9303 261.3438 15.10738693390086
Ten-Koh
1 43677U 18084G   25088.36861417  .00005927  00000-0  48073-3 0  9995
2 43677  98.0960 257.7462 0010421 150.7278 209.4530 15.00033405349417
PO-101
1 43678U 18084H   25088.85485343  .00004357  00000-0  37592-3 0  9990
2 43678  98.0984 262.2799 0008494 160.2841 199.8710 14.97812075349647
QO-100
1 43700U 18090A   25088.84779701  .00000141  00000-0  00000+0 0  9993
2 43700   0.0123 134.2192 0001474 267.1279 117.1423  1.00272333 23469
MinXSS-2
1 43758U 18099A   25088.12348842  .00028257  00000-0  12110-2 0  9990
2 43758  97.5096 154.0461 0012859  56.7636 303.4831 15.22648668345938
AO-95
1 43770U 18099N   25088.13045528  .00017813  00000-0  94439-3 0  9991
2 43770  97.5005 147.0724 0012537 105.6227 254.6390 15.15365630345573
RANGE-A
1 43773U 18099R   25088.10736135  .00008820  00000-0  57419-3 0  9997
2 43773  97.4574 138.6187 0013142  83.8702 276.4024 15.08107961345291
MOVE-II
1 43780U 18099Y   25088.18026356  .00130521  00000-0  21899-2 0  9996
2 43780  97.4736 159.7276 0001207  86.8958 273.2432 15.51337805346498
SNUSat 2
1 43782U 18099AA  25088.10074598  .00015582  00000-0  88248-3 0  9992
2 43782  97.4694 144.3679 0013119  50.8430 309.3965 15.13034288345534
SnugLite
1 43784U 18099AC  25088.10967774  .00018856  00000-0  99246-3 0  9998
2 43784  97.4504 143.8065 0004399  66.1513 294.0181 15.15668991345650
ITASat 1
1 43786U 18099AE  25088.09721666  .00013642  00000-0  80368-3 0  9999
2 43786  97.4658 144.0759 0016274  97.9726 262.3352 15.11604031345501
EAGLET 1
1 43790U 18099AJ  25088.72064886  .00007690  00000-0  50034-3 0  9991
2 43790  97.4843 144.8582 0013611  79.2274 281.0486 15.08167588345230
ESEO
1 43792U 18099AL  25088.40730141  .00004231  00000-0  32482-3 0  9997
2 43792  97.4590 138.7535 0012603  54.6773 305.5629 15.02223426344982
CSIM
1 43793U 18099AM  25088.15702939  .00129391  00000-0  21319-2 0  9995
2 43793  97.4927 161.8122 0003398   9.4184 350.7131 15.51848944346334
JO-97
1 43803U 18099AX  25088.09644606  .00022200  00000-0  10753-2 0  9997
2 43803  97.4749 147.8975 0008250  49.3350 310.8600 15.18531607345760
Suomi 100
1 43804U 18099AY  25088.13398184  .00017828  00000-0  91598-3 0  9997
2 43804  97.4816 147.4183 0013342  46.4416 313.7922 15.16466172345718
ISAT
1 43879U 18111D   25088.73395707  .00031981  00000-0  12357-2 0  9999
2 43879  97.6009   1.7102 0012416  91.1605 269.1056 15.26113256340706
UWE-4
1 43880U 18111E   25088.27956223  .00028097  00000-0  11946-2 0  9993
2 43880  97.5950   0.1911 0015357 101.5894 258.7067 15.22888624342618
Sparrow
1 43881U 18111F   25088.70361601  .00034358  00000-0  12874-2 0  9990
2 43881  97.6140   4.2964 0009877 120.1293 240.0925 15.27143737340804
Prox-1
1 44339U 19036A   25088.29439666  .00019323  00000-0  25894-2 0  9998
2 44339  23.9967 175.9524 0006612 335.9845  24.0343 14.77839289307303
SONATE
1 44400U 19038Q   25088.04212663  .00122767  00000-0  11032-2 0  9994
2 44400  97.7033 106.6942 0010582 146.2582 213.9354 15.67795574318123
Taurus 1
1 44530U 19059C   25088.88744117  .00012192  00000-0  23137-2 0  9996
2 44530  98.5970 224.9833 0010038 249.5432 110.4691 14.64338890293448
